Location: Chakepay
(13.3931°S, 72.1925°W)
Time: 22:18:44
(UTC+00:00)

Meteor 1-31 Rocket - Pass Details

Date: 15 November 2019
Orbit: 521 x 547 km, 97.6° (Epoch: 05 December)

Event Time Altitude Azimuth Distance (km) Brightness Sun altitude
Rises 09:15:01 0° 357° (N) 2,674 6.1 -13.6°
Reaches altitude 10° 09:17:12 10° 349° (N) 1,793 5.1 -13.2°
Maximum altitude 09:20:50 38° 280° (W) 843 3.3 -12.3°
Drops below altitude 10° 09:24:30 10° 211° (SSW) 1,821 5.4 -11.5°
Sets 09:26:45 0° 203° (SSW) 2,722 6.4 -11.0°
